Back to catalog

ARIANE 5 R/B

AliveGTO
NORAD 26612·ROCKET BODY·🇫🇷 France

Launched Nov 16, 2000 from Guiana Space Centre

Loading…

TLE

StaleSource: Space-Track

Epoch: Sep 13, 2026, 21:57 UTC

1 26612U 00072E   26256.91509017 -.00000328  00000-0  33967-2 0  9993
2 26612   6.9909  25.1773 7343993 148.8546 291.3573  2.01791488190427

Track ARIANE 5 R/B in real time with AllMySat

Download on the App Store